Torna al catalogo

DMSP 5D-2 F13 DEB

AttivoSSO
NORAD 40612·DEBRIS·🇺🇸 United States

Lanciato Mar 24, 1995 da Vandenberg Space Force Base

Loading…

Prossimi Passaggi (prossime 24 ore)

TLE

AggiornatoSource: Space-Track

Epoca: Sep 14, 2026, 07:53 UTC

1 40612U 95015FK  26257.32854763  .00002644  00000-0  85672-3 0  9990
2 40612  98.6752 296.7018 0007196 118.6815 241.5097 14.39816083592173

Traccia DMSP 5D-2 F13 DEB in tempo reale con AllMySat

Download on the App Store